星链-4144 (STARLINK-4144 )

导读 | 星芒AI

STARLINK-4144 是 SpaceX Starlink 卫星互联网项目中的一颗低轨卫星,属于第二批“批轨”(Batch 4)部署的一部分。该卫星于2021年发射,运行在约550公里高度的近地轨道,旨在为全球用户提供高速、低延迟的宽带互联网服务。Starlink 项目计划部署数千颗卫星,以构建覆盖全球的通信网络,尤其服务于偏远和网络基础设施薄弱的地区。STARLINK-4144 采用先进推进系统和激光通信技术,以提升网络效率和可持续性。

基本信息
目录编号:
53257
目录名称:
STARLINK-4144
国际标识:
2022-086R
轨道中心:
EARTH
卫星名称:
星链-4144
卫星全名:
星链-4144 (STARLINK-4144 )
卫星状态:
在轨 (已飞行1246 天)
发射日期:
2022-07-24 UTC
国别 :
美国 (US)
星等 :
--
轨道信息
数据来源 国际轨道数据 AOE轨道数据
星历时间 2025-12-21T04:30:29+0800
8小时前
查看轨道信息
2025-12-21T04:00:00+0800
9小时前
查看轨道信息
半长轴 6917.895km 6917.897km
偏心率 0.000145 0.0001561
轨道倾角 53.216° 53.216°
近地点辐角 91.700° 89.995°
升交点赤经 188.026° 188.124°
平近点角 268.416° 155.058°
近地点 538.754km 538.68km
远地点 540.762km 540.84km
周期 95.438分钟 95.438分钟
每日圈数 15.088355 15.088347
详细信息
固有亮度:
5
最大亮度:
2.5
卫星平台:
Starlink v1.5
覆盖范围:
全球
运营商:
太空探索技术公司
运营商所在国:
美国
制造商(研发单位):
太空探索技术公司
制造商所在国:
美国
使用方式:
暂无
卫星简介
星链(Starlink)计划是由太空探索技术公司(SpaceX)提出的一个巨型低轨卫星互联网星座项目,计划在2019年至2024年间在太空搭建由约1.2万颗卫星组成的“星链”网络,其中1584颗将部署在地球上空550千米处的近地轨道,并从2020年开始工作。该卫星仍在工作。
2D轨道图
3D轨道图
轨道高度分析图
轨道倾角分析图
轨道综合分析图
查看轨道综合分析图